POLYITAN-2-SAU

Last updated on Tue Feb 05 2019 03:04:17 GMT+0000 (Coordinated Universal Time)

1 42732U 98067MM 19035.84948260 .08466551 12392-4 69401-3 0 9996 2 42732 51.6102 222.7661 0006965 282.1368 217.9093 16.38912453 97286

Satellite not in orbit